Location: Cartignies
(50.0929°N, 3.8447°E)
Time: 13:23:23
(UTC+00:00)

Cosmos 304 Rocket - Pass Details

Date: 12 January 2026
Orbit: 669 x 676 km, 74.0° (Epoch: 16 February)

Event Time Altitude Azimuth Distance (km) Brightness Sun altitude
Rises 17:09:19 0° 335° (NNW) 3,040 7.2 -9.7°
Reaches altitude 10° 17:11:37 10° 334° (NNW) 2,120 6.4 -10.1°
Maximum altitude 17:16:23 77° 249° (WSW) 697 3.9 -10.8°
Drops below altitude 10° 17:21:06 10° 164° (SSE) 2,100 6.3 -11.5°
Sets 17:23:23 0° 162° (SSE) 3,009 7.1 -11.8°
